[[{"header":{"parameterUnit":"m.s-1","parameterCategory":1,"la1":30.2991,"la2":30.254,"lo1":-89.0895,"lo2":-89.0444,"dy":0.0017,"dx":0.0017,"nx":28,"ny":28,"refTime":"2025-04-22T21:00:00:Z","depth":0,"parameterNumber":2,"parameterNumberName":"U-component_of_WINDS"},"data":[0,0,0,0,0,0,0,0,0,0,0,0,0,0,0,0,0,0,0,0,0,0,0,0,0,0,0,0,0,0,0,0,0,0,0,0,0,0,0,0,0,0,0,0,0,0,0,0,0,0,0,0,0,0,0,0,0,0,-2.4988,-2.4987,0,-2.497,-2.4969,-2.4969,-2.4915,-2.4914,-2.4913,-2.4912,-2.4891,-2.4892,-2.4892,0,0,0,0,0,0,0,0,0,0,0,0,0,-2.4976,-2.4976,-2.4988,-2.4987,-2.4987,-2.497,-2.4969,-2.4969,-2.4916,-2.4914,-2.4913,-2.4911,-2.4891,-2.4891,-2.4892,0,0,0,0,0,0,0,0,0,0,0,0,0,-2.4972,-2.4976,-2.4988,-2.4958,-2.4956,-2.497,-2.4969,-2.4969,-2.4916,-2.4914,-2.4912,-2.4911,-2.4891,-2.4891,-2.4892,-2.4933,0,0,-2.4895,-2.4895,0,0,0,0,0,0,0,0,-2.4972,-2.4972,-2.4963,-2.496,-2.4957,-2.4943,-2.4958,-2.4957,-2.4916,-2.4931,-2.4912,-2.491,-2.491,-2.4909,-2.4909,-2.4932,-2.4931,-2.4895,-2.4895,-2.4896,-2.4896,0,0,0,0,0,0,0,-2.4972,-2.4973,-2.498,-2.4963,-2.4959,-2.4946,-2.4944,-2.4957,-2.493,-2.4929,-2.4926,-2.4924,-2.4908,-2.4909,-2.4908,-2.493,-2.4895,-2.4895,-2.4896,-2.4896,-2.4988,-2.499,0,0,0,0,0,0,-2.4977,-2.4973,-2.4981,-2.498,-2.4961,-2.4948,-2.4945,-2.4949,-2.493,-2.4925,-2.4926,-2.4922,-2.4908,-2.4907,-2.4907,-2.4955,-2.4896,-2.4896,-2.4897,-2.4986,-2.4988,-2.4991,0,0,0,0,0,0,-2.4977,-2.4978,-2.4982,-2.4976,-2.4975,-2.495,-2.4955,-2.495,-2.4951,-2.4927,-2.4922,-2.4932,-2.4907,-2.4906,-2.4928,-2.4953,-2.4897,-2.4897,-2.4984,-2.4987,-2.499,-2.5049,0,0,0,0,0,0,-2.4977,-2.4978,-2.4993,-2.4976,-2.4976,-2.5002,-2.4957,-2.4951,-2.4952,-2.4947,-2.4931,-2.4927,-2.4905,-2.4927,-2.4928,-2.4953,-2.4898,-2.4981,-2.4985,-2.4989,-2.5045,-2.5054,-2.5061,0,0,0,0,0,-2.4977,-2.5009,-2.4994,-2.4995,-2.4993,-2.5004,-2.5003,-2.4978,-2.4955,-2.497,-2.4955,-2.4927,-2.4951,-2.4929,-2.4931,-2.4956,-2.498,-2.4984,-2.4988,-2.5041,-2.5052,-2.5061,0,0,0,0,0,0,-2.5028,-2.5006,-2.4989,-2.5018,-2.5013,-2.4995,-2.5012,-2.499,-2.4991,-2.4986,-2.4955,-2.4952,-2.4978,-2.4969,-2.4946,-2.4996,-2.4961,-2.4966,-2.5,-2.501,-2.5019,-2.502,-2.4899,0,0,0,0,0,-2.5043,-2.5053,-2.5034,-2.5061,-2.506,-2.5037,-2.504,-2.5022,-2.5016,-2.5013,-2.5,-2.4995,-2.5001,-2.5005,-2.5009,-2.5044,-2.504,-2.5063,-2.5071,-2.5078,-2.5082,-2.5102,-2.5112,-2.5005,-2.5005,-2.5005,0,0,-2.5073,-2.5063,-2.5071,-2.5071,-2.5065,-2.5077,-2.5035,-2.5049,-2.5057,-2.5015,-2.5034,-2.5026,-2.5017,-2.5046,-2.5058,-2.504,-2.5112,-2.5084,-2.5089,-2.509,-2.5108,-2.5118,-2.5127,-2.5008,-2.5007,-2.5007,0,0,-2.5134,-2.5127,-2.515,-2.5146,-2.5139,-2.5124,-2.513,-2.5116,-2.5109,-2.5129,-2.5098,-2.5108,-2.5119,-2.5115,-2.5114,-2.518,-2.5154,-2.5182,-2.5225,-2.5245,-2.5253,-2.526,-2.5284,-2.5293,-2.5186,-2.5187,-2.5187,0,-2.5172,-2.5189,-2.5164,-2.5181,-2.5183,-2.5147,-2.5171,-2.5168,-2.5162,-2.5164,-2.5144,-2.516,-2.5152,-2.518,-2.5197,-2.5197,-2.5203,-2.5182,-2.5254,-2.5261,-2.5267,-2.529,-2.5299,-2.519,-2.519,-2.5189,-2.5189,0,-2.5237,-2.525,-2.5269,-2.5267,-2.5271,-2.5291,-2.5269,-2.5277,-2.5259,-2.5247,-2.5269,-2.5259,-2.5262,-2.5268,-2.5249,-2.5295,-2.5284,-2.526,-2.5223,-2.5281,-2.5302,-2.5311,-2.5195,-2.5194,-2.5193,-2.5192,0,0,-2.5326,-2.5313,-2.5321,-2.5321,-2.5312,-2.5321,-2.5341,-2.5345,-2.5353,-2.5351,-2.5367,-2.538,-2.5358,-2.5358,-2.534,-2.5357,-2.5411,-2.5331,-2.533,-2.5347,-2.5462,-2.548,-2.549,-2.5396,-2.5397,-2.5398,-2.5463,0,-2.5385,-2.5418,-2.5398,-2.5433,-2.5446,-2.5414,-2.5432,-2.5429,-2.5419,-2.5428,-2.5417,-2.5427,-2.5397,-2.5397,-2.5413,-2.5401,-2.5434,-2.5396,-2.541,-2.5411,-2.5412,-2.5501,-2.5519,-2.558,-2.5471,-2.5472,-2.5473,0,-2.5456,-2.5461,-2.5498,-2.549,-2.5495,-2.551,-2.5514,-2.5524,-2.5521,-2.5512,-2.5515,-2.5493,-2.5513,-2.5479,-2.5506,-2.5481,-2.5486,-2.5482,-2.5483,-2.5483,-2.5445,-2.5503,-2.5599,-2.5608,-2.5485,-2.5484,-2.5483,0,-2.5519,-2.5534,-2.5559,-2.5559,-2.5551,-2.5563,-2.556,-2.5555,-2.556,-2.5564,-2.5567,-2.5573,-2.5576,-2.5581,-2.5563,-2.5539,-2.5593,-2.5556,-2.5586,-2.5587,-2.5598,-2.5597,-2.5696,-2.5602,-2.5602,-2.5602,-2.5601,0,-2.5586,-2.561,-2.5587,-2.5602,-2.563,-2.5608,-2.5635,-2.5629,-2.5626,-2.564,-2.5613,-2.5627,-2.5601,-2.5613,-2.5599,-2.5624,-2.5625,-2.562,-2.5615,-2.5622,-2.5623,-2.5623,-2.5619,-2.5604,-2.5604,-2.5603,-2.5603,0,-2.5659,-2.5645,-2.567,-2.5661,-2.566,-2.568,-2.5673,-2.5687,-2.5677,-2.5695,-2.5698,-2.5682,-2.5695,-2.5677,-2.5687,-2.5678,-2.5713,-2.5702,-2.5714,-2.5711,-2.5742,-2.574,-2.5845,-2.5858,-2.5756,-2.5757,-2.5758,0,-2.5702,-2.5721,-2.5715,-2.5723,-2.5722,-2.5735,-2.5741,-2.5721,-2.5729,-2.5729,-2.5744,-2.5755,-2.5762,-2.5784,-2.5773,-2.5781,-2.577,-2.5807,-2.5771,-2.5778,-2.5771,-2.5771,-2.5773,-2.5814,-2.5815,-2.5816,-2.5817,0,-2.5781,-2.5774,-2.5784,-2.5792,-2.5801,-2.5806,-2.5809,-2.5817,-2.5797,-2.5807,-2.582,-2.5826,-2.5839,-2.585,-2.5856,-2.5853,-2.5832,-2.5829,-2.5836,-2.5842,-2.5848,-2.5846,-2.5734,-2.5826,-2.5825,-2.5824,-2.5824,-2.5823,-2.5841,-2.5857,-2.5856,-2.5869,-2.587,-2.5874,-2.5888,-2.5881,-2.5892,-2.5901,-2.5889,-2.5907,-2.5906,-2.5913,-2.5913,-2.5926,-2.591,-2.5921,-2.5924,-2.5926,-2.5932,-2.5848,-2.5927,-2.5927,-2.5927,-2.5927,-2.5926,0,-2.5918,-2.5917,-2.5929,-2.5936,-2.5947,-2.5928,-2.5932,-2.5942,-2.5958,-2.596,-2.5969,-2.5986,-2.5998,-2.5989,-2.6,-2.6012,-2.6003,-2.6016,-2.6014,-2.6014,-2.5945,-2.5937,-2.6023,-2.6023,-2.6023,-2.6023,-2.6023,-2.6023,-2.596,-2.5987,-2.598,-2.6008,-2.6006,-2.6024,-2.6028,-2.6033,-2.6035,-2.6055,-2.6065,-2.6061,-2.6059,-2.607,-2.608,-2.6078,-2.6083,-2.6099,-2.6093,-2.6028,-2.6019,-2.6009,-2.6002,-2.61,-2.61,-2.6161,-2.6162,-2.6162]},{"header":{"parameterUnit":"m.s-1","parameterCategory":1,"la1":30.2991,"la2":30.254,"lo1":-89.0895,"lo2":-89.0444,"dy":0.0017,"dx":0.0017,"nx":28,"ny":28,"refTime":"2025-04-22T21:00:00:Z","depth":0,"parameterNumber":3,"parameterNumberName":"V-component_of_WINDS"},"data":[0,0,0,0,0,0,0,0,0,0,0,0,0,0,0,0,0,0,0,0,0,0,0,0,0,0,0,0,0,0,0,0,0,0,0,0,0,0,0,0,0,0,0,0,0,0,0,0,0,0,0,0,0,0,0,0,0,0,1.8885,1.8884,0,1.8862,1.8862,1.8862,1.8893,1.8895,1.8896,1.8897,1.887,1.8868,1.8866,0,0,0,0,0,0,0,0,0,0,0,0,0,1.8954,1.8952,1.8885,1.8884,1.8884,1.8862,1.8862,1.8862,1.8893,1.8895,1.8896,1.8897,1.887,1.8868,1.8866,0,0,0,0,0,0,0,0,0,0,0,0,0,1.8926,1.8952,1.8885,1.8897,1.8898,1.8862,1.8862,1.8862,1.8893,1.8895,1.8896,1.8898,1.8871,1.8868,1.8866,1.8815,0,0,1.8857,1.8856,0,0,0,0,0,0,0,0,1.8928,1.8924,1.8896,1.8897,1.8898,1.8883,1.8876,1.8846,1.8893,1.8895,1.8897,1.8899,1.8872,1.887,1.8861,1.8813,1.8812,1.8857,1.8856,1.8854,1.8854,0,0,0,0,0,0,0,1.893,1.8925,1.8876,1.8895,1.8896,1.8904,1.8902,1.8871,1.8874,1.8895,1.8897,1.8894,1.8873,1.8864,1.8861,1.8812,1.8857,1.8855,1.8853,1.8852,1.8723,1.8721,0,0,0,0,0,0,1.8931,1.8926,1.8876,1.8875,1.8917,1.8901,1.8899,1.8885,1.8875,1.8875,1.8893,1.8896,1.8868,1.8864,1.886,1.88,1.8854,1.8852,1.885,1.8725,1.8723,1.8721,0,0,0,0,0,0,1.8932,1.8926,1.8877,1.8901,1.8896,1.8898,1.8883,1.8884,1.8875,1.8873,1.8874,1.8883,1.8869,1.8864,1.8827,1.88,1.8851,1.8848,1.8727,1.8724,1.8722,1.868,0,0,0,0,0,0,1.8934,1.8926,1.8907,1.8901,1.8894,1.8844,1.8881,1.8882,1.8871,1.8875,1.8864,1.8864,1.887,1.883,1.8824,1.8797,1.8846,1.8729,1.8726,1.8723,1.8684,1.8676,1.867,0,0,0,0,0,1.8936,1.8894,1.8906,1.8899,1.887,1.8843,1.8839,1.8848,1.8869,1.8849,1.8848,1.8864,1.8805,1.8826,1.8819,1.8791,1.8731,1.8727,1.8723,1.8687,1.8678,1.867,0,0,0,0,0,0,1.8894,1.8894,1.8906,1.8861,1.8852,1.8848,1.8823,1.8838,1.8821,1.8825,1.8836,1.8833,1.8793,1.8789,1.8813,1.8743,1.8771,1.8765,1.8746,1.8737,1.8731,1.8731,1.8844,0,0,0,0,0,1.8881,1.8859,1.8859,1.882,1.8815,1.882,1.8808,1.8817,1.8807,1.8802,1.8799,1.8788,1.8767,1.8752,1.8733,1.8685,1.8683,1.8662,1.8655,1.8649,1.8643,1.8619,1.8609,1.8707,1.8707,1.8708,0,0,1.8851,1.8848,1.8833,1.8812,1.8805,1.8782,1.8816,1.879,1.8772,1.8798,1.8762,1.876,1.8749,1.8706,1.8687,1.8701,1.8617,1.8644,1.864,1.8637,1.8613,1.8604,1.8596,1.8705,1.8705,1.8706,0,0,1.8784,1.878,1.8747,1.8741,1.8733,1.8737,1.8729,1.8724,1.8724,1.869,1.8709,1.8689,1.8652,1.8643,1.8634,1.8569,1.8583,1.8563,1.8525,1.8501,1.8493,1.8486,1.8462,1.8454,1.8557,1.8557,1.8557,0,1.8747,1.8713,1.8728,1.8701,1.8691,1.8717,1.8684,1.8677,1.8661,1.8654,1.8671,1.8627,1.8621,1.8578,1.8562,1.8554,1.8545,1.8562,1.8493,1.8486,1.848,1.8458,1.8449,1.8555,1.8555,1.8555,1.8556,0,1.8669,1.8646,1.862,1.8607,1.8595,1.8565,1.8575,1.8561,1.8572,1.8575,1.854,1.8535,1.8515,1.8506,1.8515,1.8464,1.8473,1.8492,1.852,1.8468,1.8447,1.8439,1.8551,1.8552,1.8553,1.8554,0,0,1.857,1.8569,1.856,1.8555,1.8549,1.8531,1.8504,1.8487,1.8474,1.8464,1.8441,1.8412,1.843,1.8419,1.8428,1.8407,1.8356,1.8429,1.8428,1.8414,1.83,1.8285,1.8274,1.8367,1.8366,1.8364,1.8301,0,1.8503,1.8456,1.847,1.8422,1.8402,1.8428,1.8404,1.8397,1.84,1.8383,1.8386,1.8365,1.839,1.8385,1.8365,1.8367,1.8333,1.8372,1.8344,1.8343,1.8344,1.8263,1.8247,1.8186,1.8293,1.8291,1.829,0,1.8417,1.8406,1.8357,1.8358,1.8349,1.8327,1.8314,1.8298,1.8292,1.8296,1.8287,1.8301,1.8274,1.8306,1.8268,1.8294,1.8284,1.8284,1.8282,1.8277,1.8311,1.8255,1.8167,1.8158,1.8277,1.8279,1.8279,0,1.8349,1.8323,1.829,1.8286,1.8285,1.827,1.8269,1.8265,1.8255,1.8244,1.8237,1.8223,1.8214,1.8202,1.8212,1.8235,1.8173,1.8206,1.8175,1.8174,1.8158,1.8158,1.8065,1.8155,1.8155,1.8155,1.8156,0,1.8271,1.824,1.826,1.8239,1.8206,1.8224,1.8189,1.8191,1.8189,1.8169,1.8191,1.8172,1.8188,1.817,1.8178,1.8146,1.8142,1.8144,1.8146,1.8141,1.814,1.8132,1.8136,1.8153,1.8153,1.8154,1.8154,0,1.8188,1.82,1.8167,1.8171,1.8172,1.8146,1.815,1.8131,1.8138,1.8113,1.8108,1.8118,1.8099,1.8109,1.8088,1.8094,1.8052,1.8061,1.8054,1.8056,1.8024,1.8026,1.7921,1.7908,1.8008,1.8007,1.8006,0,1.8136,1.8113,1.8116,1.8106,1.8104,1.8087,1.8078,1.8095,1.8085,1.8079,1.8061,1.8044,1.8032,1.8,1.8004,1.799,1.7997,1.7961,1.7994,1.7991,1.7995,1.7996,1.7993,1.7953,1.7952,1.7951,1.7951,0,1.8042,1.8051,1.8038,1.8027,1.8017,1.8009,1.8002,1.7992,1.8011,1.7998,1.798,1.797,1.7952,1.7935,1.7923,1.7921,1.7938,1.7941,1.7933,1.7926,1.7922,1.7923,1.8034,1.7942,1.7943,1.7944,1.7944,1.7944,1.7972,1.7954,1.7954,1.7939,1.7937,1.7932,1.7915,1.7922,1.7908,1.7895,1.7907,1.7885,1.7883,1.7869,1.7866,1.7849,1.7863,1.7851,1.7848,1.7844,1.784,1.7928,1.7847,1.7847,1.7847,1.7848,1.7848,0,1.7879,1.7882,1.7868,1.7861,1.7849,1.787,1.7866,1.7854,1.7836,1.7833,1.7822,1.7802,1.7787,1.7792,1.7778,1.7764,1.7772,1.776,1.776,1.7759,1.7828,1.7836,1.7754,1.7754,1.7754,1.7754,1.7754,1.7754,1.7829,1.7799,1.7808,1.7778,1.7781,1.7761,1.7757,1.7753,1.7751,1.7728,1.7717,1.7722,1.7722,1.771,1.7697,1.7699,1.7692,1.7677,1.7681,1.7745,1.7754,1.7763,1.777,1.7676,1.7676,1.7614,1.7613,1.7613]}]]